GW4343 Weather Reports


Display with metric or nautical units.
time (UTC)temp
F
wind
direction
speed
MPH
gust
MPH
rain 1hr
in
rain 24hr
in
rain mn
in
humidity
%
barometer
mb
20260505041520 36 261 1.0 2.0 0.00 0.00 0.00 87 1013.8
20260505041004 36 241 0.0 1.0 0.00 0.00 0.00 88 1013.8
20260505040508 36 243 0.0 2.0 0.00 0.00 0.00 88 1013.9
20260505040016 36 253 0.0 2.0 0.00 0.00 0.00 88 1013.9
20260505035503 35 250 0.0 1.0 0.00 0.00 0.00 88 1013.9
20260505035011 35 251 1.0 1.0 0.00 0.00 0.00 88 1013.7
20260505034524 35 250 0.0 2.0 0.00 0.00 0.00 88 1013.7
20260505034007 35 252 0.0 2.0 0.00 0.00 0.00 88 1013.6
20260505033507 35 252 1.0 2.0 0.00 0.00 0.00 88 1013.7
20260505033014 35 251 0.0 1.0 0.00 0.00 0.00 88 1013.7
20260505032511 35 252 0.0 1.0 0.00 0.00 0.00 88 1013.6
20260505032008 35 250 0.0 0.0 0.00 0.00 0.00 88 1013.6
20260505031529 35 250 0.0 0.0 0.00 0.00 0.00 87 1013.6
20260505031007 35 250 0.0 0.0 0.00 0.00 0.00 86 1013.6
20260505030504 36 250 0.0 2.0 0.00 0.00 0.00 86 1013.3
20260505030041 36 250 0.0 2.0 0.00 0.00 0.00 85 1013.3
20260505025506 36 249 0.0 2.0 0.00 0.00 0.00 85 1013.3
20260505025004 37 227 0.0 0.0 0.00 0.00 0.00 84 1013.3
20260505024525 37 227 0.0 0.0 0.00 0.00 0.00 84 1013.1
20260505024003 37 227 0.0 0.0 0.00 0.00 0.00 84 1013.0
20260505023507 38 227 0.0 0.0 0.00 0.00 0.00 83 1013.0
20260505023025 38 227 0.0 0.0 0.00 0.00 0.00 83 1013.0
20260505022505 38 227 0.0 0.0 0.00 0.00 0.00 82 1012.8
20260505022010 38 205 0.0 0.0 0.00 0.00 0.00 82 1012.8
20260505021523 39 205 0.0 0.0 0.00 0.00 0.00 81 1012.7
20260505021010 39 205 0.0 0.0 0.00 0.00 0.00 81 1012.7
20260505020507 39 204 0.0 0.0 0.00 0.00 0.00 80 1012.7
20260505020018 40 310 0.0 0.0 0.00 0.00 0.00 80 1012.6
20260505015507 40 311 0.0 0.0 0.00 0.00 0.00 78 1012.5
20260505015008 41 311 0.0 0.0 0.00 0.00 0.00 77 1012.5
20260505014519 42 310 0.0 0.0 0.00 0.00 0.00 76 1012.5
20260505014008 42 310 0.0 0.0 0.00 0.00 0.00 74 1012.5
20260505013507 43 310 0.0 0.0 0.00 0.00 0.00 73 1012.5
20260505013025 43 310 0.0 2.0 0.00 0.00 0.00 71 1012.5
20260505012505 44 310 0.0 2.0 0.00 0.00 0.00 67 1012.5
20260505012007 46 340 0.0 2.0 0.00 0.00 0.00 65 1012.5
20260505011505 46 13 0.0 2.0 0.00 0.00 0.00 66 1012.7
20260505011003 45 37 1.0 2.0 0.00 0.00 0.00 66 1012.7
20260505010504 44 17 1.0 2.0 0.00 0.00 0.00 68 1012.7
20260505010005 44 24 2.0 2.0 0.00 0.00 0.00 69 1012.7
20260505005512 44 289 1.0 2.0 0.00 0.00 0.00 68 1012.9
20260505005004 44 281 1.0 2.0 0.00 0.00 0.00 69 1012.9
20260505004511 44 238 1.0 2.0 0.00 0.00 0.00 69 1012.9
20260505004004 44 276 0.0 1.0 0.00 0.00 0.00 69 1013.0
20260505003503 44 258 0.0 1.0 0.00 0.00 0.00 70 1013.2
20260505003003 43 258 0.0 1.0 0.00 0.00 0.00 70 1013.1
20260505002504 43 258 0.0 1.0 0.00 0.00 0.00 70 1013.2
20260505002004 43 20 0.0 3.0 0.00 0.00 0.00 70 1013.3
20260505001518 43 23 0.0 3.0 0.00 0.00 0.00 70 1013.3
20260505001006 43 23 0.0 3.0 0.00 0.00 0.00 72 1013.4
20260505000507 42 12 0.0 6.0 0.00 0.00 0.00 73 1013.4
20260505000019 42 27 2.0 6.0 0.00 0.00 0.00 73 1013.4
20260504235503 42 43 1.0 4.0 0.00 0.00 0.00 74 1013.4
20260504235009 42 33 0.0 5.0 0.00 0.00 0.00 76 1013.4
20260504234518 41 35 2.0 6.0 0.00 0.00 0.00 75 1013.5
20260504234007 41 14 3.0 6.0 0.00 0.00 0.00 76 1013.4
20260504233507 41 39 2.0 4.0 0.00 0.00 0.00 76 1013.6
20260504233008 41 13 2.0 5.0 0.00 0.00 0.00 76 1013.6
20260504232503 41 329 2.0 9.0 0.00 0.00 0.00 75 1014.2
20260504232003 41 307 3.0 12.0 0.00 0.00 0.00 74 1014.4
20260504231507 41 288 4.0 12.0 0.00 0.00 0.00 72 1014.3
20260504231010 42 233 5.0 12.0 0.00 0.00 0.00 71 1014.4
20260504230504 42 317 3.0 8.0 0.00 0.00 0.00 67 1014.2
20260504230006 42 307 5.0 7.0 0.00 0.00 0.00 67 1014.3
20260504225508 42 274 4.0 8.0 0.00 0.00 0.00 66 1014.2
20260504225004 42 305 1.0 9.0 0.00 0.00 0.00 69 1014.4
20260504224503 42 292 6.0 9.0 0.00 0.00 0.00 69 1014.5
20260504224004 42 287 2.0 6.0 0.00 0.00 0.00 72 1014.4
20260504223503 42 238 1.0 6.0 0.00 0.00 0.00 76 1014.3
20260504223021 42 260 3.0 6.0 0.00 0.00 0.00 75 1014.2
20260504222504 42 273 3.0 7.0 0.00 0.00 0.00 75 1014.0
20260504222007 42 283 3.0 7.0 0.00 0.00 0.00 73 1014.1
20260504221518 43 248 2.0 4.0 0.00 0.00 0.00 73 1014.3
20260504221006 43 273 1.0 5.0 0.00 0.00 0.00 73 1014.2
20260504220506 43 289 2.0 7.0 0.00 0.00 0.00 72 1014.1
20260504220016 43 289 4.0 7.0 0.00 0.00 0.00 70 1014.0
20260504215504 43 293 2.0 4.0 0.00 0.00 0.00 69 1014.0
20260504215013 43 289 2.0 8.0 0.00 0.00 0.00 69 1014.0
20260504214512 43 278 3.0 11.0 0.00 0.00 0.00 68 1014.0
20260504214006 44 261 5.0 16.0 0.00 0.00 0.00 66 1014.1
20260504213504 45 282 4.0 19.0 0.00 0.00 0.00 63 1013.9
20260504213019 45 300 7.0 19.0 0.00 0.00 0.00 60 1013.8
20260504212509 46 311 10.0 19.0 0.00 0.00 0.00 58 1013.6
20260504212008 47 291 10.0 18.0 0.00 0.00 0.00 56 1013.5
20260504211507 47 294 6.0 18.0 0.00 0.00 0.00 59 1013.3
20260504211006 48 285 6.0 14.0 0.00 0.00 0.00 58 1013.3
20260504210506 49 283 7.0 16.0 0.00 0.00 0.00 56 1013.2
20260504210025 50 251 7.0 16.0 0.00 0.00 0.00 54 1012.9
20260504205506 51 60 7.0 14.0 0.00 0.00 0.00 46 1012.9
20260504205002 52 271 7.0 19.0 0.00 0.00 0.00 42 1012.8
20260504204523 52 269 6.0 19.0 0.00 0.00 0.00 44 1012.8
20260504204006 53 236 6.0 13.0 0.00 0.00 0.00 44 1012.7
20260504203505 53 262 6.0 13.0 0.00 0.00 0.00 44 1012.9
20260504203022 52 323 6.0 13.0 0.00 0.00 0.00 46 1012.9
20260504202504 52 54 6.0 10.0 0.00 0.00 0.00 48 1013.0
20260504202007 52 342 5.0 12.0 0.00 0.00 0.00 49 1013.0
20260504201518 52 17 7.0 16.0 0.00 0.00 0.00 47 1013.2
20260504201006 53 20 5.0 16.0 0.00 0.00 0.00 47 1013.1
20260504200509 53 353 9.0 16.0 0.00 0.00 0.00 46 1013.2
20260504200014 53 345 7.0 15.0 0.00 0.00 0.00 44 1013.1
20260504195507 53 32 9.0 13.0 0.00 0.00 0.00 41 1013.1
20260504195004 56 15 10.0 13.0 0.00 0.00 0.00 40 1013.3
20260504194521 57 289 6.0 16.0 0.00 0.00 0.00 38 1013.2
20260504194007 56 267 8.0 16.0 0.00 0.00 0.00 38 1013.1
20260504193508 57 287 5.0 14.0 0.00 0.00 0.00 39 1013.3
20260504193011 57 231 4.0 14.0 0.00 0.00 0.00 39 1013.3
20260504192507 57 301 3.0 11.0 0.00 0.00 0.00 42 1013.3
20260504192004 57 236 3.0 13.0 0.00 0.00 0.00 40 1013.3
20260504191541 57 230 6.0 13.0 0.00 0.00 0.00 40 1013.4
20260504191009 58 297 5.0 15.0 0.00 0.00 0.00 38 1013.6
20260504190508 57 293 5.0 15.0 0.00 0.00 0.00 39 1013.6
20260504190025 56 281 6.0 14.0 0.00 0.00 0.00 39 1013.6
20260504185507 56 335 3.0 14.0 0.00 0.00 0.00 41 1013.9
20260504185007 56 188 5.0 12.0 0.00 0.00 0.00 41 1014.0
20260504184538 56 271 6.0 11.0 0.00 0.00 0.00 41 1014.0
20260504184010 55 183 6.0 13.0 0.00 0.00 0.00 42 1014.1
20260504183512 54 273 5.0 13.0 0.00 0.00 0.00 42 1014.2
20260504183020 53 269 6.0 12.0 0.00 0.00 0.00 45 1014.4
20260504182507 54 274 5.0 12.0 0.00 0.00 0.00 44 1014.4
20260504182011 53 300 4.0 9.0 0.00 0.00 0.00 46 1014.4
20260504181520 53 237 5.0 10.0 0.00 0.00 0.00 49 1014.5
20260504181008 52 273 4.0 12.0 0.00 0.00 0.00 48 1014.6
20260504180505 53 285 6.0 12.0 0.00 0.00 0.00 48 1014.8
20260504180016 52 274 4.0 13.0 0.00 0.00 0.00 50 1014.9
20260504175507 51 283 5.0 13.0 0.00 0.00 0.00 51 1014.9
20260504175010 52 272 4.0 11.0 0.00 0.00 0.00 50 1015.0
20260504174512 51 253 4.0 12.0 0.00 0.00 0.00 51 1015.1
20260504174011 51 281 7.0 12.0 0.00 0.00 0.00 50 1015.2
20260504173504 52 266 6.0 12.0 0.00 0.00 0.00 47 1015.3
20260504173025 51 34 2.0 16.0 0.00 0.00 0.00 50 1015.3
20260504172508 51 212 7.0 16.0 0.00 0.00 0.00 50 1015.4
20260504172004 51 231 5.0 10.0 0.00 0.00 0.00 49 1015.4
20260504171526 51 273 5.0 14.0 0.00 0.00 0.00 50 1015.5
20260504171011 51 234 6.0 15.0 0.00 0.00 0.00 49 1015.5
20260504170509 51 257 7.0 15.0 0.00 0.00 0.00 50 1015.5
20260504151007 50 249 8.0 19.0 0.00 0.00 0.00 52 1015.5
20260504150506 49 8 2.0 8.0 0.00 0.00 0.00 53 1015.7
20260504141008 39 269 1.0 3.0 0.00 0.00 0.00 66 1015.9
20260504140509 38 96 0.0 2.0 0.00 0.00 0.00 67 1015.9
20260504130504 31 131 0.0 2.0 0.00 0.00 0.00 74 1016.0
20260504110505 26 253 1.0 3.0 0.00 0.00 0.00 84 1015.5
20260504100507 26 255 0.0 1.0 0.00 0.00 0.00 82 1015.5
20260504081517 27 195 0.0 0.0 0.00 0.00 0.00 79 1016.0
20260504081016 27 195 0.0 0.0 0.00 0.00 0.00 77 1016.0
20260504080507 28 194 0.0 0.0 0.00 0.00 0.00 76 1016.0
20260504050502 32 213 0.0 0.0 0.00 0.00 0.00 66 1016.9
20260504050023 33 210 0.0 0.0 0.00 0.00 0.00 64 1016.9
20260504045502 33 210 0.0 1.0 0.00 0.00 0.00 63 1017.0
20260504045007 33 210 0.0 1.0 0.00 0.00 0.00 63 1017.1
20260504044520 34 210 0.0 1.0 0.00 0.00 0.00 63 1017.0
20260504044002 34 210 0.0 1.0 0.00 0.00 0.00 63 1017.1
20260504043508 34 211 0.0 1.0 0.00 0.00 0.00 63 1017.1